Location: Edelsbach
(47.0167°N, 15.6000°E)
Time: 21:54:48
(UTC+00:00)

Cosmos 2227 Rocket - Pass Details

Date: 08 August 2020
Orbit: 840 x 844 km, 71.0° (Epoch: 23 September)

Event Time Altitude Azimuth Distance (km) Brightness Sun altitude
Exits shadow 23:22:26 23° 102° (ESE) 1,706 3.7 -27.1°
Maximum altitude 23:22:26 23° 102° (ESE) 1,706 3.7 -27.1°
Drops below altitude 10° 23:26:48 10° 51° (NE) 2,470 5.2 -27.0°
Sets 23:29:42 0° 38° (NE) 3,410 6.2 -26.9°
